AirNav   ATP
 
 1419 users online  

UT56 American Fork Hospital Heliport
American Fork, Utah, USA

GOING TO AMERICAN FORK?


FAA INFORMATION EFFECTIVE 13 SEPTEMBER 2018

Location

FAA Identifier: UT56
Lat/Long: 40-22-46.8700N / 111-46-06.9900W
40-22.781167N / 111-46.116500W
40.3796861 / -111.7686083
(estimated)
Elevation: 4603 ft. / 1403 m (estimated)
Variation: 14E (1986)
Time zone: UTC -6 (UTC -7 during Standard Time)
Zip code: 84003

Heliport Operations

Heliport use: Private use, MEDICAL USE.
Activation date: 04/1986
Control tower: no
ARTCC: SALT LAKE CITY CENTER
FSS: CEDAR CITY FLIGHT SERVICE STATION
Attendance: UNATNDD
Wind indicator: yes
Segmented circle: no

Heliport Communications

WX AWOS-3PT at PVU (10 nm S): 135.175 (801-373-9782)
WX AWOS-3PT at HCR (17 nm E): 124.825 (435-657-0892)
WX AWOS-3 at U42 (18 nm NW): 134.425 (801-562-0271)

Nearby radio navigation aids

VOR radial/distance  VOR name  Freq  Var
FFUr035/10.1FAIRFIELD VORTAC116.6016E
PVUr333/10.1PROVO VOR/DME108.4015E
TCHr145/29.9WASATCH VORTAC116.8016E

Heliport Services

Runway Information

Helipad H1

Dimensions: 85 x 65 ft. / 26 x 20 m
Surface: asphalt
Latitude: 40-22.781167N
Longitude: 111-46.116500W
Elevation: 4603.0 ft.
Traffic pattern: leftleft

Heliport Ownership and Management from official FAA records

Ownership: Privately-owned
Owner: AMERICAN FORK HOSPITAL
170 NORTH 1100 EAST
AMERICAN FORK, UT 84003
Phone 801-855-3300
Manager: JASON WILSON
170 NORTH 1100 EAST
AMERICAN FORK, UT 84003
Phone 801-855-3300

Additional Remarks

A52-H1 75' PLINE 300' S; 60' BLDG-L 200' EAST.

Instrument Procedures

There are no published instrument procedures at UT56.

Some nearby airports with instrument procedures:

KPVU - Provo Municipal Airport (10 nm S)
KHCR - Heber City Municipal Airport - Russ McDonald Field (17 nm E)
U42 - South Valley Regional Airport (18 nm NW)
KSLC - Salt Lake City International Airport (26 nm N)
KTVY - Bolinder Field-Tooele Valley Airport (30 nm NW)
 
Loc | Ops | Rwys | IFR | FBO | Links
Com | Nav | Svcs | Stats | Notes

TAC Air
 
Area around UT56 (American Fork Hospital Heliport)
 
Road maps at: MapQuest Bing Google
 
Aerial photo
No photo
 
Sectional chart

 
Airport distance calculator
Flying to American Fork Hospital Heliport? Find the distance to fly.

From to UT56

Sunrise and sunset
Times for 21-Sep-2018
 Local
(UTC-6)
 Zulu
(UTC)
Morning civil twilight06:4712:47
Sunrise07:1513:15
Sunset19:2601:26
Evening civil twilight19:5301:53

Current date and time
Zulu (UTC)  21-Sep-2018 17:02:54
Local (UTC-6)  21-Sep-2018 11:02:54
 
METAR
KPVU 
10nm S 
211656Z VRB03KT 3SM FU CLR 16/M03 A3026 RMK AO2 SLP220 T01611028
KHCR 
17nm E 
211655Z AUTO 00000KT 10SM CLR 12/M10 A3030 RMK AO2
KU42 
18nm NW 
211655Z AUTO 14010KT 10SM CLR 19/00 A3024 RMK AO1 T01911004
TAF
KPVU 
10nm S 
211502Z 2115/2212 16004KT 3SM FU SCT010 FM211700 24006KT P6SM SKC
KHCR 
17nm E 
211120Z 2112/2212 VRB03KT P6SM SKC FM212000 23007KT P6SM SKC FM220100 VRB04KT P6SM SKC
NOTAMs
Click for the latest NOTAMs
NOTAMs are issued by the DoD/FAA and will open in a separate window not controlled by AirNav.

 

 
 

Would you like to see your business listed on this page?

 If your business provides an interesting product or service to pilots, flight crews, aircraft, or users of the American Fork Hospital Heliport, you should consider listing it here.  To start the listing process, click on the button below
 
Add a business
 

Other Pages about American Fork Hospital Heliport

Update a link
 
Copyright © AirNav, LLC. All rights reserved. Privacy Policy  Contact